Location: Campillo
(40.8621°N, 4.2488°W)
Time: 12:20:13
(UTC+00:00)

Cosmos 2154 Rocket - Pass Details

Date: 01 October 2021
Orbit: 965 x 997 km, 82.9° (Epoch: 15 October)

Event Time Altitude Azimuth Distance (km) Brightness Sun altitude
Rises 20:03:11 0° 228° (SW) 3,705 7.5 -24.1°
Reaches altitude 10° 20:06:27 10° 245° (WSW) 2,760 6.9 -24.7°
Maximum altitude 20:10:59 20° 291° (WNW) 2,108 6.6 -25.5°
Drops below altitude 10° 20:15:33 10° 338° (NNW) 2,765 6.9 -26.3°
Sets 20:18:51 0° 354° (N) 3,714 7.4 -26.9°
